[[{"header":{"parameterUnit":"m.s-1","parameterCategory":2,"la1":30.2991,"la2":30.254,"lo1":-89.0895,"lo2":-89.0444,"dy":0.0017,"dx":0.0017,"nx":28,"ny":28,"refTime":"2024-05-18T03:00:00:Z","depth":"0","parameterNumber":2,"parameterNumberName":"U-component_of_CURRENTS"},"data":[0,0,0,0,0,0,0,0,0,0,0,0,0,0,0,0,0,0,0,0,0,0,0,0,0,0,0,0,0,0,0,0,0,0,0,0,0,0,0,0,0,0,0,0,0,0,0,0,0,0,0,0,0,0,0,0,0,0,0.2076,0.2076,0,0.2038,0.2037,0.2037,0.2018,0.2018,0.2018,0.2018,0.1975,0.1973,0.1972,0,0,0,0,0,0,0,0,0,0,0,0,0,0.2115,0.2114,0.2076,0.2076,0.2075,0.2038,0.2037,0.2037,0.2018,0.2018,0.2018,0.2018,0.1975,0.1974,0.1972,0,0,0,0,0,0,0,0,0,0,0,0,0,0.2088,0.2114,0.2076,0.2062,0.2061,0.2038,0.2037,0.2036,0.2018,0.2018,0.2018,0.2018,0.1976,0.1974,0.1972,0.1957,0,0,0.1966,0.1965,0,0,0,0,0,0,0,0,0.209,0.2087,0.2065,0.2063,0.2061,0.2034,0.2035,0.201,0.2018,0.2033,0.2018,0.2018,0.1995,0.1991,0.1982,0.1955,0.1953,0.1966,0.1965,0.1964,0.1964,0,0,0,0,0,0,0,0.2092,0.2088,0.206,0.2064,0.2062,0.2052,0.2048,0.203,0.2012,0.2032,0.2031,0.2028,0.1993,0.1984,0.1981,0.1953,0.1966,0.1964,0.1963,0.1962,0.1942,0.1943,0,0,0,0,0,0,0.2099,0.209,0.2061,0.2059,0.2078,0.2051,0.2047,0.2042,0.2013,0.2009,0.2028,0.2027,0.1987,0.1983,0.1979,0.199,0.1964,0.1962,0.1961,0.1942,0.1942,0.1943,0,0,0,0,0,0,0.21,0.2097,0.2063,0.2075,0.207,0.2051,0.2044,0.2041,0.2039,0.201,0.2006,0.2031,0.1987,0.1982,0.1974,0.1987,0.1961,0.196,0.1941,0.1942,0.1943,0.1993,0,0,0,0,0,0,0.2102,0.2098,0.2097,0.2075,0.2069,0.206,0.2044,0.204,0.2037,0.2036,0.2011,0.2007,0.1987,0.1977,0.1972,0.1984,0.1958,0.194,0.1941,0.1942,0.1991,0.1996,0.2,0,0,0,0,0,0.2103,0.2093,0.2097,0.2094,0.2069,0.206,0.2057,0.2043,0.2038,0.2041,0.2025,0.2008,0.1981,0.1976,0.197,0.1982,0.194,0.1941,0.1942,0.1989,0.1995,0.2,0,0,0,0,0,0,0.2102,0.2089,0.2094,0.2079,0.208,0.2058,0.2051,0.2049,0.2038,0.2036,0.2012,0.2006,0.2005,0.1986,0.1982,0.198,0.1959,0.1959,0.1996,0.2001,0.2006,0.201,0.1957,0,0,0,0,0,0.2106,0.2096,0.2093,0.2082,0.2083,0.2073,0.2068,0.2064,0.2051,0.2046,0.203,0.2014,0.2004,0.1998,0.1983,0.1979,0.1979,0.1985,0.1989,0.1993,0.1993,0.2006,0.2012,0.1947,0.1947,0.1947,0,0,0.2104,0.2093,0.209,0.2082,0.2076,0.2081,0.207,0.2065,0.2072,0.2042,0.204,0.2027,0.2006,0.2005,0.2003,0.1992,0.2015,0.1995,0.1999,0.1996,0.2008,0.2014,0.202,0.1948,0.1948,0.1948,0,0,0.2092,0.2088,0.2083,0.2086,0.2086,0.2084,0.209,0.2082,0.2082,0.2082,0.2066,0.2062,0.2041,0.2033,0.2026,0.2045,0.2039,0.2045,0.207,0.2083,0.2089,0.2094,0.212,0.2127,0.2047,0.2048,0.2048,0,0.2099,0.2086,0.2081,0.2081,0.2087,0.2091,0.21,0.21,0.2093,0.2099,0.2088,0.2074,0.2054,0.2061,0.2067,0.2056,0.2068,0.2052,0.209,0.2095,0.2099,0.2125,0.2131,0.205,0.205,0.205,0.2049,0,0.2091,0.2086,0.2081,0.2089,0.2096,0.2101,0.2113,0.2125,0.2128,0.2129,0.2138,0.2115,0.211,0.2106,0.2089,0.2112,0.2115,0.2096,0.2078,0.2108,0.2134,0.214,0.2054,0.2053,0.2052,0.2052,0,0,0.2109,0.2083,0.2087,0.2091,0.2104,0.211,0.2132,0.2154,0.2173,0.217,0.219,0.2172,0.2168,0.2159,0.2146,0.2151,0.2192,0.2139,0.2139,0.217,0.224,0.2338,0.2354,0.2185,0.2186,0.2187,0.2254,0,0.2117,0.2107,0.2099,0.2112,0.2117,0.2135,0.2153,0.2175,0.2192,0.2213,0.2207,0.2215,0.2188,0.2192,0.2196,0.2193,0.2208,0.2177,0.2202,0.2203,0.229,0.2364,0.2461,0.2537,0.226,0.2261,0.2262,0,0.2131,0.2119,0.212,0.2124,0.2131,0.2142,0.2188,0.2201,0.2236,0.225,0.2267,0.2268,0.2284,0.225,0.2272,0.2258,0.2254,0.2248,0.225,0.2325,0.2313,0.2458,0.2558,0.2415,0.2271,0.227,0.2269,0,0.2153,0.2145,0.2143,0.2146,0.215,0.2164,0.2175,0.2212,0.2237,0.2277,0.2309,0.2322,0.2342,0.2337,0.2343,0.231,0.2373,0.2323,0.2408,0.2415,0.2494,0.2507,0.2463,0.2338,0.2338,0.2338,0.2338,0,0.217,0.2174,0.2148,0.2148,0.2163,0.2166,0.2197,0.2219,0.2261,0.2305,0.2323,0.2377,0.2365,0.2405,0.2382,0.2447,0.2412,0.2439,0.2449,0.2518,0.2531,0.2406,0.2303,0.234,0.234,0.2339,0.2339,0,0.2188,0.2175,0.217,0.2163,0.2166,0.2175,0.2205,0.2229,0.2273,0.2338,0.2359,0.2433,0.2512,0.2518,0.2533,0.2525,0.2494,0.257,0.2668,0.269,0.264,0.2537,0.244,0.2363,0.2681,0.2684,0.2687,0,0.2176,0.2172,0.217,0.2171,0.2163,0.2178,0.219,0.2229,0.2267,0.2384,0.2421,0.2532,0.2631,0.2722,0.2769,0.2807,0.2608,0.2868,0.2818,0.2681,0.2571,0.2399,0.2325,0.294,0.2945,0.2948,0.2951,0,0.215,0.2159,0.2159,0.2155,0.2163,0.2179,0.2205,0.2241,0.2309,0.2395,0.2521,0.2617,0.2796,0.291,0.2991,0.3021,0.2762,0.2944,0.277,0.2762,0.2602,0.252,0.284,0.2983,0.298,0.2978,0.2976,0.2975,0.2127,0.2123,0.2122,0.2123,0.2139,0.2157,0.2164,0.2234,0.2312,0.2432,0.2566,0.2725,0.2932,0.3109,0.311,0.3157,0.2987,0.3067,0.2953,0.2788,0.2714,0.3124,0.3295,0.3293,0.3292,0.3291,0.329,0,0.2065,0.2073,0.2078,0.2076,0.2079,0.2109,0.2153,0.2167,0.2255,0.2435,0.2579,0.2852,0.3017,0.313,0.3265,0.3152,0.3012,0.3018,0.2766,0.2689,0.3061,0.3074,0.3245,0.3245,0.3245,0.3245,0.3245,0.3245,0.203,0.2016,0.2021,0.2002,0.2012,0.1995,0.2014,0.2075,0.2184,0.2367,0.2541,0.2691,0.2874,0.3014,0.3004,0.2981,0.2653,0.264,0.2415,0.2655,0.2647,0.264,0.2626,0.27,0.27,0.2061,0.2056,0.2052]},{"header":{"parameterUnit":"m.s-1","parameterCategory":2,"la1":30.2991,"la2":30.254,"lo1":-89.0895,"lo2":-89.0444,"dy":0.0017,"dx":0.0017,"nx":28,"ny":28,"refTime":"2024-05-18T03:00:00:Z","depth":"0","parameterNumber":3,"parameterNumberName":"V-component_of_CURRENTS"},"data":[0,0,0,0,0,0,0,0,0,0,0,0,0,0,0,0,0,0,0,0,0,0,0,0,0,0,0,0,0,0,0,0,0,0,0,0,0,0,0,0,0,0,0,0,0,0,0,0,0,0,0,0,0,0,0,0,0,0,-0.0472,-0.0473,0,-0.0647,-0.0649,-0.0651,-0.0758,-0.0758,-0.0758,-0.0758,-0.0818,-0.082,-0.0821,0,0,0,0,0,0,0,0,0,0,0,0,0,-0.0329,-0.0331,-0.0472,-0.0473,-0.0475,-0.0646,-0.0649,-0.0652,-0.0758,-0.0758,-0.0758,-0.0758,-0.0818,-0.082,-0.0822,0,0,0,0,0,0,0,0,0,0,0,0,0,-0.044,-0.0331,-0.0471,-0.0545,-0.0553,-0.0646,-0.0649,-0.0653,-0.0758,-0.0758,-0.0758,-0.0759,-0.0817,-0.082,-0.0822,-0.0833,0,0,-0.0829,-0.083,0,0,0,0,0,0,0,0,-0.0434,-0.0446,-0.0533,-0.054,-0.0549,-0.0677,-0.0621,-0.0706,-0.0758,-0.0685,-0.0758,-0.0759,-0.0757,-0.0764,-0.0805,-0.0836,-0.0838,-0.0829,-0.083,-0.0831,-0.0832,0,0,0,0,0,0,0,-0.0426,-0.0439,-0.0546,-0.0534,-0.0545,-0.0603,-0.0619,-0.0639,-0.072,-0.0692,-0.0699,-0.0711,-0.0762,-0.0803,-0.0807,-0.0839,-0.0829,-0.0831,-0.0832,-0.0833,-0.0886,-0.0886,0,0,0,0,0,0,-0.0389,-0.0432,-0.054,-0.0551,-0.0485,-0.0605,-0.0623,-0.064,-0.0722,-0.0735,-0.071,-0.0715,-0.0799,-0.0804,-0.0809,-0.0819,-0.0831,-0.0833,-0.0835,-0.0886,-0.0886,-0.0886,0,0,0,0,0,0,-0.0386,-0.0398,-0.0533,-0.0491,-0.0512,-0.0606,-0.0625,-0.0643,-0.0676,-0.0737,-0.0748,-0.0723,-0.08,-0.0806,-0.0836,-0.0822,-0.0834,-0.0836,-0.0886,-0.0886,-0.0886,-0.0842,0,0,0,0,0,0,-0.0381,-0.0395,-0.0399,-0.0489,-0.0513,-0.0575,-0.0625,-0.0646,-0.0681,-0.0689,-0.0751,-0.0758,-0.08,-0.0832,-0.0838,-0.0825,-0.0838,-0.0886,-0.0886,-0.0886,-0.0844,-0.0841,-0.0839,0,0,0,0,0,-0.0375,-0.0378,-0.0398,-0.0412,-0.0513,-0.0574,-0.0592,-0.0663,-0.0681,-0.0694,-0.0746,-0.0756,-0.0836,-0.0834,-0.0841,-0.0829,-0.0886,-0.0886,-0.0886,-0.0845,-0.0842,-0.0839,0,0,0,0,0,0,-0.0322,-0.0392,-0.0415,-0.044,-0.0493,-0.0589,-0.0608,-0.0649,-0.0705,-0.0705,-0.0763,-0.0774,-0.0793,-0.0817,-0.0813,-0.0845,-0.0859,-0.0861,-0.0826,-0.0823,-0.082,-0.0794,-0.084,0,0,0,0,0,-0.0307,-0.0328,-0.0398,-0.0417,-0.0435,-0.0515,-0.0548,-0.0591,-0.065,-0.0677,-0.0719,-0.0762,-0.0801,-0.0816,-0.085,-0.0865,-0.0882,-0.086,-0.0858,-0.0855,-0.0839,-0.0868,-0.0866,-0.0886,-0.0886,-0.0886,0,0,-0.0291,-0.0331,-0.0344,-0.0406,-0.0453,-0.0482,-0.0537,-0.0574,-0.06,-0.0668,-0.0705,-0.0749,-0.0803,-0.0833,-0.0842,-0.0849,-0.086,-0.0855,-0.0853,-0.0838,-0.0868,-0.0866,-0.0864,-0.0886,-0.0886,-0.0886,0,0,-0.0269,-0.03,-0.031,-0.0346,-0.0401,-0.0449,-0.0448,-0.0526,-0.056,-0.0601,-0.066,-0.0696,-0.075,-0.0798,-0.0826,-0.0823,-0.0844,-0.0828,-0.0795,-0.0823,-0.0822,-0.082,-0.0841,-0.0842,-0.0828,-0.0828,-0.0828,0,-0.0244,-0.0273,-0.0321,-0.0338,-0.036,-0.0422,-0.0433,-0.048,-0.0559,-0.058,-0.0597,-0.0694,-0.0734,-0.0783,-0.0791,-0.0814,-0.0833,-0.0803,-0.0819,-0.0818,-0.0817,-0.0839,-0.084,-0.0826,-0.0826,-0.0827,-0.0827,0,-0.024,-0.0256,-0.026,-0.0301,-0.0328,-0.0345,-0.0402,-0.0427,-0.0463,-0.0516,-0.0559,-0.0631,-0.0688,-0.0707,-0.0752,-0.0771,-0.0787,-0.0811,-0.0823,-0.0812,-0.0836,-0.0838,-0.0823,-0.0824,-0.0825,-0.0825,0,0,-0.0194,-0.0247,-0.0247,-0.0256,-0.0306,-0.0328,-0.035,-0.0398,-0.0411,-0.0475,-0.05,-0.0577,-0.0612,-0.0646,-0.0703,-0.073,-0.0749,-0.0763,-0.0766,-0.0776,-0.0807,-0.0794,-0.0795,-0.0778,-0.0779,-0.0779,-0.0826,0,-0.0173,-0.0195,-0.0227,-0.0232,-0.0242,-0.0287,-0.0302,-0.0347,-0.0391,-0.0427,-0.0495,-0.0539,-0.0592,-0.0617,-0.0653,-0.0728,-0.0752,-0.0733,-0.0822,-0.0824,-0.0807,-0.0796,-0.0677,-0.0707,-0.0829,-0.0829,-0.0829,0,-0.0154,-0.0173,-0.0179,-0.0198,-0.0202,-0.0212,-0.0238,-0.0263,-0.0324,-0.0351,-0.0406,-0.0467,-0.0529,-0.0565,-0.067,-0.0657,-0.0719,-0.0771,-0.0775,-0.0774,-0.0814,-0.0738,-0.0707,-0.0806,-0.0833,-0.0833,-0.0833,0,-0.0105,-0.0131,-0.0133,-0.0143,-0.0177,-0.0177,-0.0195,-0.0241,-0.025,-0.0307,-0.0313,-0.0405,-0.0442,-0.0533,-0.0646,-0.0661,-0.0748,-0.0787,-0.083,-0.0831,-0.075,-0.0742,-0.0813,-0.0841,-0.0841,-0.0841,-0.0841,0,-0.0072,-0.0065,-0.011,-0.011,-0.0094,-0.0132,-0.012,-0.0148,-0.0179,-0.0173,-0.027,-0.0278,-0.0433,-0.0512,-0.0618,-0.0723,-0.073,-0.0811,-0.0838,-0.0732,-0.0723,-0.0823,-0.09,-0.0842,-0.0842,-0.0842,-0.0841,0,-0.0008,-0.0044,-0.0038,-0.0068,-0.007,-0.0058,-0.0064,-0.0055,-0.0091,-0.0083,-0.0094,-0.0187,-0.028,-0.0431,-0.0577,-0.0675,-0.0823,-0.0818,-0.068,-0.0689,-0.0827,-0.0905,-0.1007,-0.106,-0.0876,-0.0876,-0.0876,0,0.0025,0.0027,0.0006,0.0016,0.0007,0.0015,0.0031,-0.0002,0.0012,-0.0016,0.0002,-0.0092,-0.0122,-0.0335,-0.0511,-0.0682,-0.0805,-0.0709,-0.0716,-0.0806,-0.0914,-0.0976,-0.1019,-0.0596,-0.0594,-0.0592,-0.0591,0,0.0096,0.0083,0.0082,0.0094,0.011,0.0131,0.0146,0.0175,0.0154,0.0177,0.0195,0.0169,-0.0023,-0.012,-0.0368,-0.0508,-0.0746,-0.0676,-0.0798,-0.0718,-0.0759,-0.0831,-0.0605,-0.0573,-0.0575,-0.0576,-0.0577,-0.0578,0.016,0.0172,0.0162,0.0184,0.0206,0.0251,0.0298,0.0332,0.0391,0.0472,0.0408,0.0488,0.0283,-0.0026,-0.0274,-0.0575,-0.0658,-0.0641,-0.0734,-0.0794,-0.0824,-0.0561,-0.0549,-0.055,-0.0551,-0.0553,-0.0554,0,0.0232,0.0232,0.0253,0.0277,0.0329,0.0314,0.0384,0.0457,0.0572,0.0698,0.076,0.084,0.057,0.0233,-0.0195,-0.0519,-0.067,-0.0712,-0.0759,-0.0809,-0.0575,-0.054,-0.0488,-0.0488,-0.0487,-0.0487,-0.0487,-0.0487,0.0268,0.0297,0.0297,0.0384,0.0415,0.0508,0.0565,0.0682,0.0808,0.1072,0.1264,0.1345,0.1145,0.0238,-0.0417,-0.0617,-0.0859,-0.0897,-0.1095,-0.091,-0.091,-0.091,-0.0895,-0.0918,-0.0919,-0.1229,-0.1233,-0.1235]}],[{"header":{"parameterUnit":"m.s-1","parameterCategory":2,"la1":30.2991,"la2":30.254,"lo1":-89.0895,"lo2":-89.0444,"dy":0.0017,"dx":0.0017,"nx":28,"ny":28,"refTime":"2024-05-18T03:00:00:Z","depth":"2","parameterNumber":2,"parameterNumberName":"U-component_of_CURRENTS"},"data":[0,0,0,0,0,0,0,0,0,0,0,0,0,0,0,0,0,0,0,0,0,0,0,0,0,0,0,0,0,0,0,0,0,0,0,0,0,0,0,0,0,0,0,0,0,0,0,0,0,0,0,0,0,0,0,0,0,0,0.2318,0.2321,0,0.2622,0.2626,0.2629,0.2771,0.277,0.277,0.2769,0.2717,0.2716,0.2714,0,0,0,0,0,0,0,0,0,0,0,0,0,0.2017,0.2021,0.2318,0.2321,0.2325,0.2622,0.2626,0.263,0.2771,0.277,0.277,0.2769,0.2717,0.2716,0.2714,0,0,0,0,0,0,0,0,0,0,0,0,0,0.2218,0.2022,0.2317,0.243,0.2443,0.2621,0.2626,0.2631,0.2771,0.277,0.277,0.2769,0.2717,0.2716,0.2714,0.2715,0,0,0.2709,0.2709,0,0,0,0,0,0,0,0,0.2206,0.2229,0.241,0.2422,0.2437,0.2657,0.2501,0.2641,0.2771,0.2648,0.2769,0.2769,0.2663,0.2666,0.2731,0.2713,0.271,0.2709,0.2708,0.2707,0.2707,0,0,0,0,0,0,0,0.2192,0.2218,0.244,0.2414,0.2431,0.252,0.2547,0.2531,0.2649,0.2658,0.2669,0.2701,0.2668,0.2733,0.273,0.2709,0.2709,0.2708,0.2707,0.2706,0.2692,0.2692,0,0,0,0,0,0,0.2145,0.2204,0.243,0.2449,0.2317,0.2525,0.2555,0.2588,0.2657,0.267,0.2701,0.2706,0.2736,0.2732,0.2728,0.2732,0.2707,0.2706,0.2705,0.2691,0.2692,0.2692,0,0,0,0,0,0,0.2137,0.2162,0.2418,0.2332,0.237,0.2529,0.2566,0.2594,0.2676,0.2694,0.2699,0.2755,0.2735,0.273,0.2721,0.2729,0.2705,0.2704,0.269,0.2691,0.2692,0.2737,0,0,0,0,0,0,0.2127,0.2158,0.2188,0.2329,0.2374,0.252,0.2568,0.26,0.2694,0.2705,0.274,0.2736,0.2735,0.2723,0.2719,0.2727,0.2702,0.269,0.2691,0.2692,0.2735,0.2739,0.2743,0,0,0,0,0,0.2116,0.2163,0.2188,0.2217,0.2403,0.2521,0.2553,0.2665,0.2697,0.2736,0.2754,0.2735,0.2727,0.2722,0.2717,0.2725,0.2689,0.2691,0.2692,0.2733,0.2738,0.2743,0,0,0,0,0,0,0.206,0.2185,0.2216,0.2301,0.2394,0.2544,0.2603,0.2671,0.2733,0.2729,0.2741,0.2737,0.2737,0.2721,0.2716,0.2724,0.2705,0.2706,0.2738,0.2743,0.2747,0.2756,0.2701,0,0,0,0,0,0.2054,0.2126,0.2234,0.231,0.2339,0.2468,0.2538,0.2607,0.2675,0.2709,0.273,0.2736,0.2742,0.2733,0.2734,0.2728,0.2737,0.273,0.2735,0.2738,0.2742,0.2775,0.2783,0.2697,0.2697,0.2697,0,0,0.2049,0.2138,0.2174,0.2303,0.2381,0.2432,0.251,0.2607,0.2667,0.2678,0.2741,0.2749,0.2745,0.2757,0.2753,0.2739,0.2768,0.274,0.2743,0.2745,0.2778,0.2786,0.2794,0.2698,0.2698,0.2697,0,0,0.2065,0.2144,0.2185,0.2253,0.2366,0.2438,0.2457,0.2584,0.2652,0.2707,0.2732,0.2752,0.2758,0.2779,0.2781,0.2803,0.2794,0.2792,0.2813,0.2846,0.2853,0.286,0.2888,0.2897,0.2788,0.2788,0.2788,0,0.2046,0.2143,0.2217,0.2264,0.2329,0.2423,0.2465,0.2547,0.2664,0.2717,0.2714,0.2786,0.2777,0.2813,0.2824,0.2814,0.2826,0.2796,0.2853,0.286,0.2866,0.2892,0.2902,0.2791,0.279,0.279,0.279,0,0.2075,0.216,0.2191,0.2275,0.2326,0.2408,0.2481,0.2551,0.2624,0.2711,0.2782,0.2799,0.2842,0.2842,0.2836,0.2879,0.2873,0.2861,0.2843,0.2878,0.2903,0.2912,0.2794,0.2793,0.2793,0.2792,0,0,0.2017,0.2185,0.2193,0.2242,0.2358,0.2395,0.2471,0.2588,0.2651,0.274,0.2824,0.2859,0.2892,0.2897,0.2902,0.2924,0.2979,0.2907,0.2907,0.2939,0.305,0.2937,0.2935,0.2976,0.2978,0.2979,0.3053,0,0.2032,0.2129,0.2211,0.2285,0.2331,0.2429,0.2488,0.2582,0.2682,0.277,0.2839,0.2896,0.2906,0.2917,0.2952,0.2973,0.3003,0.296,0.3007,0.3008,0.2907,0.2942,0.2698,0.2733,0.3061,0.3063,0.3064,0,0.2019,0.211,0.2188,0.2317,0.2335,0.2394,0.2506,0.2575,0.2714,0.2778,0.2869,0.2918,0.2988,0.2968,0.3057,0.3029,0.3044,0.3057,0.306,0.2943,0.291,0.2749,0.2737,0.3079,0.3077,0.3076,0.3075,0,0.194,0.2081,0.216,0.2205,0.234,0.241,0.2489,0.2608,0.2668,0.28,0.284,0.2945,0.2988,0.304,0.31,0.3074,0.3184,0.3149,0.307,0.3063,0.2858,0.2828,0.3203,0.3203,0.3203,0.3203,0.3203,0,0.1965,0.2002,0.2148,0.2202,0.2267,0.2366,0.2463,0.2545,0.2668,0.2726,0.2845,0.2887,0.3006,0.3089,0.3122,0.3138,0.3215,0.3081,0.3074,0.2865,0.2837,0.3132,0.3123,0.3206,0.3205,0.3205,0.3204,0,0.1874,0.1986,0.2044,0.2201,0.2248,0.2282,0.2443,0.2518,0.2624,0.2699,0.2732,0.2868,0.2971,0.3092,0.3183,0.3149,0.3181,0.3167,0.2916,0.2875,0.3028,0.302,0.3058,0.3055,0.3052,0.3049,0.3047,0,0.1847,0.188,0.1992,0.2038,0.2142,0.2239,0.2326,0.2474,0.2548,0.2672,0.2694,0.2831,0.2869,0.2988,0.2986,0.3028,0.3158,0.2819,0.2704,0.3023,0.3014,0.3011,0.3007,0.2464,0.2458,0.2452,0.2448,0,0.178,0.1802,0.1869,0.1952,0.2061,0.2136,0.2286,0.2308,0.2461,0.2486,0.2524,0.2555,0.2683,0.2605,0.2693,0.2684,0.2786,0.2703,0.3124,0.2525,0.2465,0.2455,0.2471,0.2399,0.2404,0.2408,0.241,0.2412,0.1695,0.1712,0.1801,0.1858,0.1962,0.2033,0.2041,0.2162,0.2172,0.2173,0.2288,0.2244,0.2322,0.2266,0.2266,0.2298,0.246,0.2376,0.2392,0.2414,0.2319,0.2255,0.2134,0.2137,0.2139,0.2142,0.2144,0,0.1619,0.168,0.1719,0.1796,0.1831,0.1942,0.2001,0.1948,0.1899,0.1946,0.1921,0.1727,0.1701,0.1852,0.1779,0.1785,0.1767,0.1771,0.174,0.1788,0.1831,0.1706,0.1358,0.1356,0.1354,0.1352,0,0,0.1613,0.1619,0.1637,0.1647,0.1714,0.1724,0.1721,0.1612,0.1585,0.1454,0.1415,0.1511,0.1669,0.1422,0.1454,0.1403,0.1576,0.1351,0.1976,0.1979,0.2019,0.2172,0.2032,0,0,0,0,0]},{"header":{"parameterUnit":"m.s-1","parameterCategory":2,"la1":30.2991,"la2":30.254,"lo1":-89.0895,"lo2":-89.0444,"dy":0.0017,"dx":0.0017,"nx":28,"ny":28,"refTime":"2024-05-18T03:00:00:Z","depth":"2","parameterNumber":3,"parameterNumberName":"V-component_of_CURRENTS"},"data":[0,0,0,0,0,0,0,0,0,0,0,0,0,0,0,0,0,0,0,0,0,0,0,0,0,0,0,0,0,0,0,0,0,0,0,0,0,0,0,0,0,0,0,0,0,0,0,0,0,0,0,0,0,0,0,0,0,0,0.0262,0.026,0,0.0054,0.0051,0.0048,-0.0107,-0.0108,-0.0109,-0.011,-0.0184,-0.0185,-0.0186,0,0,0,0,0,0,0,0,0,0,0,0,0,0.0362,0.0362,0.0262,0.026,0.0258,0.0055,0.0051,0.0047,-0.0107,-0.0108,-0.0109,-0.011,-0.0184,-0.0185,-0.0186,0,0,0,0,0,0,0,0,0,0,0,0,0,0.0247,0.0362,0.0262,0.0161,0.0151,0.0055,0.0051,0.0047,-0.0107,-0.0108,-0.0109,-0.0111,-0.0183,-0.0185,-0.0187,-0.0175,0,0,-0.0192,-0.0193,0,0,0,0,0,0,0,0,0.0254,0.0243,0.0178,0.0168,0.0156,0.0004,0.0059,-0.0019,-0.0107,-0.0016,-0.011,-0.0111,-0.0103,-0.0112,-0.016,-0.0178,-0.0182,-0.0193,-0.0194,-0.0195,-0.0195,0,0,0,0,0,0,0,0.0262,0.025,0.0173,0.0176,0.0163,0.0071,0.0054,0.0042,-0.0053,-0.0024,-0.0034,-0.0047,-0.011,-0.0158,-0.0162,-0.0183,-0.0193,-0.0194,-0.0195,-0.0196,-0.023,-0.023,0,0,0,0,0,0,0.0312,0.0259,0.018,0.0167,0.0211,0.0071,0.0052,0.0048,-0.0057,-0.0073,-0.0045,-0.0053,-0.0154,-0.016,-0.0165,-0.0181,-0.0195,-0.0196,-0.0197,-0.023,-0.023,-0.023,0,0,0,0,0,0,0.0315,0.0307,0.0188,0.0213,0.0192,0.0073,0.0069,0.0045,-0.0013,-0.0073,-0.0088,-0.0079,-0.0155,-0.0162,-0.0194,-0.0183,-0.0197,-0.0199,-0.023,-0.023,-0.023,-0.0195,0,0,0,0,0,0,0.0319,0.0309,0.0313,0.0217,0.0193,0.014,0.007,0.0042,-0.0015,-0.0028,-0.0106,-0.0115,-0.0157,-0.0191,-0.0195,-0.0186,-0.02,-0.0231,-0.023,-0.023,-0.0196,-0.0193,-0.0191,0,0,0,0,0,0.0323,0.0331,0.0315,0.0305,0.0206,0.0141,0.0119,0.0025,-0.0015,-0.0034,-0.0098,-0.0113,-0.0191,-0.0192,-0.0198,-0.0189,-0.0231,-0.023,-0.023,-0.0198,-0.0194,-0.0191,0,0,0,0,0,0,0.0362,0.0314,0.0294,0.0284,0.0227,0.0118,0.0091,0.0032,-0.004,-0.0048,-0.0115,-0.0127,-0.0151,-0.017,-0.017,-0.0197,-0.021,-0.0211,-0.0184,-0.018,-0.0178,-0.0148,-0.0202,0,0,0,0,0,0.0384,0.0384,0.0319,0.0311,0.0292,0.0196,0.0155,0.0098,0.0027,-0.001,-0.0067,-0.0115,-0.0152,-0.0167,-0.0201,-0.0208,-0.0216,-0.0204,-0.0202,-0.0199,-0.0178,-0.0196,-0.0193,-0.0228,-0.0228,-0.0228,0,0,0.0399,0.0372,0.0371,0.0321,0.0268,0.0244,0.0165,0.0117,0.0087,0.0004,-0.0052,-0.0105,-0.0153,-0.0181,-0.0191,-0.0195,-0.0194,-0.0198,-0.0196,-0.0176,-0.0195,-0.0192,-0.0189,-0.0228,-0.0228,-0.0228,0,0,0.0427,0.041,0.0418,0.0381,0.0325,0.0276,0.0272,0.0175,0.0122,0.007,0.0,-0.0047,-0.0105,-0.0148,-0.0173,-0.0165,-0.0182,-0.0172,-0.0132,-0.015,-0.0147,-0.0144,-0.0151,-0.015,-0.0168,-0.0168,-0.0168,0,0.0443,0.0444,0.0406,0.0398,0.0377,0.0302,0.0298,0.0239,0.0138,0.0111,0.0068,-0.0041,-0.0088,-0.012,-0.0135,-0.0157,-0.0167,-0.0143,-0.0145,-0.0143,-0.0141,-0.0149,-0.0148,-0.0166,-0.0167,-0.0167,-0.0167,0,0.0472,0.0468,0.0469,0.0449,0.0427,0.0408,0.0351,0.0313,0.0251,0.0186,0.0128,0.004,-0.0023,-0.0048,-0.0096,-0.0105,-0.0117,-0.0143,-0.0152,-0.0135,-0.0145,-0.0144,-0.0164,-0.0165,-0.0165,-0.0165,0,0,0.0509,0.0494,0.0493,0.0493,0.0453,0.0437,0.0419,0.0374,0.0356,0.026,0.023,0.0133,0.0074,0.0043,-0.0023,-0.0046,-0.006,-0.0086,-0.0088,-0.0088,-0.009,-0.0056,-0.0052,-0.009,-0.009,-0.009,-0.0104,0,0.0534,0.0553,0.0534,0.0544,0.0548,0.05,0.049,0.0446,0.0388,0.0342,0.0255,0.0193,0.0113,0.0071,0.0038,-0.0036,-0.0055,-0.0053,-0.011,-0.011,-0.0078,-0.0049,-0.0093,-0.0105,-0.0103,-0.0103,-0.0103,0,0.0557,0.057,0.0602,0.0597,0.0596,0.0582,0.0569,0.0546,0.0484,0.044,0.0374,0.0294,0.0229,0.0159,0.0066,0.0069,-0.0001,-0.0054,-0.0057,-0.0029,-0.0073,-0.0122,-0.0104,-0.0101,-0.0102,-0.0102,-0.0102,0,0.0604,0.0608,0.0644,0.064,0.0633,0.0622,0.0601,0.0561,0.0556,0.0487,0.0479,0.0384,0.0332,0.0241,0.0114,0.0085,0.0033,-0.0024,-0.0051,-0.005,-0.0098,-0.0101,-0.0071,-0.0071,-0.0071,-0.0071,-0.0071,0,0.063,0.0646,0.0657,0.0666,0.069,0.0662,0.0665,0.0634,0.0611,0.0633,0.0518,0.0532,0.0349,0.0286,0.0167,0.008,0.0071,-0.0022,-0.0043,-0.0087,-0.0088,-0.0095,-0.0097,-0.0072,-0.0072,-0.0072,-0.0072,0,0.0656,0.0672,0.0703,0.0709,0.0707,0.0714,0.0699,0.0716,0.068,0.0711,0.0694,0.0634,0.0567,0.0406,0.0268,0.0159,0.0061,0.0028,-0.0,-0.0023,-0.0027,-0.0028,-0.0003,-0.0002,-0.0001,-0.0,0.0001,0,0.0667,0.0694,0.0737,0.0767,0.0754,0.0757,0.0778,0.0746,0.0784,0.08,0.0847,0.0778,0.0771,0.059,0.0364,0.0178,0.0141,0.0027,-0.0034,0.0008,-0.0017,-0.0019,-0.0021,-0.0099,-0.0099,-0.0099,-0.0099,0,0.0684,0.0708,0.0743,0.0814,0.0839,0.0883,0.0899,0.0944,0.0953,0.0994,0.1072,0.1062,0.0874,0.0668,0.0398,0.0262,0.005,0.0024,0.0068,-0.0091,-0.0078,-0.0103,-0.0103,-0.01,-0.01,-0.01,-0.01,-0.01,0.0693,0.0728,0.0795,0.0857,0.0912,0.0999,0.1041,0.1109,0.1193,0.1241,0.124,0.1196,0.0944,0.0584,0.035,0.0074,0.0104,-0.0028,-0.003,-0.0032,-0.0022,-0.0006,-0.0012,-0.0012,-0.0011,-0.0011,-0.0011,0,0.0703,0.076,0.0833,0.0923,0.1007,0.1025,0.1136,0.1193,0.1321,0.1332,0.1359,0.1092,0.0858,0.058,0.0164,-0.0045,-0.0113,-0.0115,-0.0178,-0.0175,-0.0172,-0.0173,-0.0202,-0.0203,-0.0204,-0.0205,0,0,0.0711,0.0785,0.0835,0.0983,0.1058,0.1173,0.1247,0.1334,0.1364,0.1377,0.1308,0.1211,0.0898,0.056,0.0256,0.002,-0.0031,-0.0031,0.0142,0.0106,0.011,-0.0104,-0.0096,0,0,0,0,0]}],[{"header":{"parameterUnit":"m.s-1","parameterCategory":2,"la1":30.2991,"la2":30.254,"lo1":-89.0895,"lo2":-89.0444,"dy":0.0017,"dx":0.0017,"nx":28,"ny":28,"refTime":"2024-05-18T03:00:00:Z","depth":"4","parameterNumber":2,"parameterNumberName":"U-component_of_CURRENTS"},"data":[0,0,0,0,0,0,0,0,0,0,0,0,0,0,0,0,0,0,0,0,0,0,0,0,0,0,0,0,0,0,0,0,0,0,0,0,0,0,0,0,0,0,0,0,0,0,0,0,0,0,0,0,0,0,0,0,0,0,0.0958,0.0958,0,0.0953,0.0953,0.0953,0.1019,0.1021,0.1023,0.1025,0.1165,0.1167,0.1169,0,0,0,0,0,0,0,0,0,0,0,0,0,0.0956,0.0956,0.0958,0.0958,0.0958,0.0953,0.0953,0.0952,0.1019,0.1021,0.1024,0.1026,0.1164,0.1167,0.1169,0,0,0,0,0,0,0,0,0,0,0,0,0,0.0953,0.0956,0.0958,0.0992,0.0995,0.0953,0.0953,0.0952,0.1018,0.1021,0.1024,0.1027,0.1164,0.1166,0.1169,0.1127,0,0,0.1178,0.1179,0,0,0,0,0,0,0,0,0.0953,0.0953,0.0987,0.099,0.0993,0.0991,0.1003,0.1019,0.1017,0.1007,0.1025,0.1028,0.1119,0.1126,0.1114,0.1133,0.1139,0.1178,0.118,0.1181,0.1182,0,0,0,0,0,0,0,0.0953,0.0953,0.0954,0.0987,0.0991,0.0984,0.0987,0.1005,0.1048,0.1009,0.1014,0.1015,0.1122,0.111,0.1118,0.1141,0.1178,0.118,0.1182,0.1183,0.13,0.1301,0,0,0,0,0,0,0.0958,0.0953,0.0954,0.0954,0.0982,0.0982,0.0986,0.0987,0.1045,0.1056,0.1013,0.1018,0.1104,0.1114,0.1123,0.1234,0.1181,0.1183,0.1185,0.1298,0.13,0.1302,0,0,0,0,0,0,0.0958,0.0958,0.0955,0.0955,0.0955,0.098,0.0981,0.0986,0.1024,0.1047,0.1061,0.1052,0.1107,0.1119,0.1231,0.1235,0.1185,0.1187,0.1297,0.1299,0.1301,0.1357,0,0,0,0,0,0,0.0958,0.0958,0.097,0.0955,0.0955,0.0978,0.0978,0.0984,0.1018,0.1027,0.1084,0.1097,0.111,0.1227,0.1234,0.1238,0.1189,0.1295,0.1298,0.13,0.1353,0.136,0.1367,0,0,0,0,0,0.0957,0.0966,0.097,0.0971,0.0968,0.098,0.098,0.1005,0.1018,0.1047,0.1117,0.1098,0.1246,0.1233,0.1239,0.1244,0.1294,0.1297,0.13,0.135,0.1359,0.1366,0,0,0,0,0,0,0.0978,0.0973,0.0978,0.0987,0.1004,0.0993,0.1013,0.1024,0.1089,0.1112,0.1142,0.1161,0.1207,0.1247,0.123,0.1285,0.1254,0.1259,0.1289,0.1298,0.1305,0.128,0.1192,0,0,0,0,0,0.0982,0.0985,0.099,0.1,0.1012,0.1016,0.1026,0.1042,0.1086,0.1116,0.115,0.1194,0.121,0.1285,0.127,0.1362,0.1349,0.1361,0.1368,0.1374,0.1359,0.1386,0.1393,0.1312,0.1312,0.1312,0,0,0.0986,0.0987,0.0988,0.1004,0.1012,0.1029,0.1032,0.106,0.108,0.1121,0.1179,0.1184,0.1221,0.1277,0.1309,0.1343,0.139,0.1378,0.1383,0.1364,0.139,0.1397,0.1404,0.1314,0.1314,0.1314,0,0,0.0992,0.1007,0.1013,0.1031,0.1056,0.1059,0.108,0.1092,0.1119,0.1181,0.1178,0.1237,0.1289,0.1322,0.1346,0.1399,0.1366,0.1382,0.1475,0.1502,0.1509,0.1514,0.1504,0.1508,0.1461,0.1461,0.1461,0,0.1004,0.1009,0.1021,0.104,0.1055,0.1081,0.1101,0.112,0.1168,0.1194,0.1218,0.1257,0.1299,0.1365,0.1396,0.1409,0.1409,0.1444,0.151,0.1516,0.152,0.1509,0.1512,0.1464,0.1464,0.1463,0.1463,0,0.1008,0.1028,0.104,0.1065,0.1088,0.1113,0.114,0.1172,0.1203,0.1219,0.1262,0.1319,0.1367,0.1378,0.1424,0.1473,0.1451,0.1454,0.1487,0.1532,0.1517,0.152,0.1468,0.1467,0.1466,0.1466,0,0,0.0997,0.1033,0.1042,0.1063,0.1106,0.1123,0.1165,0.1206,0.1242,0.1285,0.1328,0.1382,0.1405,0.1433,0.1472,0.1545,0.1594,0.1552,0.1552,0.1535,0.1632,0.1546,0.1541,0.1621,0.1622,0.1623,0.1606,0,0.1003,0.103,0.105,0.1092,0.1112,0.1153,0.119,0.1234,0.1277,0.1325,0.1379,0.1418,0.1431,0.148,0.1542,0.1561,0.1605,0.1596,0.1595,0.1593,0.1508,0.1543,0.1626,0.1608,0.1609,0.1609,0.161,0,0.1,0.1021,0.1052,0.1109,0.1125,0.1159,0.1225,0.1266,0.1336,0.1374,0.1429,0.1447,0.1542,0.1542,0.1608,0.1607,0.1615,0.163,0.1631,0.1527,0.1513,0.1556,0.1615,0.1614,0.1614,0.1614,0.1613,0,0.0972,0.1027,0.1051,0.1069,0.1133,0.1169,0.1217,0.1285,0.1326,0.1412,0.1448,0.1517,0.1575,0.1598,0.1643,0.1638,0.1689,0.1685,0.159,0.1583,0.164,0.1634,0.1691,0.1691,0.1691,0.1691,0.1691,0,0.0954,0.0983,0.1048,0.1062,0.1114,0.117,0.1234,0.1291,0.1367,0.1415,0.148,0.1513,0.1598,0.1635,0.1647,0.1631,0.1692,0.1582,0.1577,0.1663,0.166,0.1641,0.1635,0.1691,0.1691,0.1691,0.1691,0,0.091,0.095,0.0991,0.1069,0.1099,0.1143,0.1239,0.1274,0.1365,0.1426,0.1457,0.1538,0.1589,0.1631,0.1683,0.1637,0.1633,0.1601,0.1675,0.1676,0.1497,0.1495,0.1478,0.1475,0.1473,0.1471,0.1469,0,0.0882,0.0896,0.0985,0.1009,0.1049,0.1121,0.1159,0.1263,0.1297,0.142,0.1433,0.1515,0.1555,0.1535,0.1601,0.1592,0.1574,0.1546,0.152,0.148,0.1477,0.1479,0.148,0.1465,0.1464,0.1463,0.1462,0,0.0832,0.0875,0.0905,0.0955,0.1003,0.1047,0.1117,0.1133,0.1249,0.1341,0.1371,0.1394,0.1439,0.1469,0.1482,0.1474,0.1559,0.1518,0.1522,0.1498,0.1463,0.1463,0.1468,0.1453,0.1455,0.1456,0.1456,0,0.0802,0.0808,0.0851,0.089,0.0941,0.0954,0.1004,0.1043,0.1097,0.1235,0.1244,0.133,0.1423,0.1407,0.142,0.1414,0.1382,0.1326,0.134,0.1351,0.1322,0.126,0.1175,0,0,0,0,0,0.076,0.0749,0.0776,0.0808,0.0853,0.0881,0.0959,0.1009,0.1122,0.1109,0.1176,0.121,0.1238,0.128,0.1245,0.1358,0.1385,0.1311,0.1327,0.1403,0.1414,0.1394,0,0,0,0,0,0,0.0727,0.0741,0.0745,0.073,0.0732,0.0769,0.0811,0.0888,0.0888,0.101,0.1027,0.1128,0.1167,0.124,0.1217,0.1232,0.1215,0.1374,0.137,0.1397,0.1407,0.1415,0.1399,0,0,0,0,0]},{"header":{"parameterUnit":"m.s-1","parameterCategory":2,"la1":30.2991,"la2":30.254,"lo1":-89.0895,"lo2":-89.0444,"dy":0.0017,"dx":0.0017,"nx":28,"ny":28,"refTime":"2024-05-18T03:00:00:Z","depth":"4","parameterNumber":3,"parameterNumberName":"V-component_of_CURRENTS"},"data":[0,0,0,0,0,0,0,0,0,0,0,0,0,0,0,0,0,0,0,0,0,0,0,0,0,0,0,0,0,0,0,0,0,0,0,0,0,0,0,0,0,0,0,0,0,0,0,0,0,0,0,0,0,0,0,0,0,0,0.0285,0.0285,0,0.0263,0.0263,0.0262,0.0249,0.0249,0.0249,0.0249,0.0206,0.0204,0.0203,0,0,0,0,0,0,0,0,0,0,0,0,0,0.0292,0.0292,0.0285,0.0285,0.0285,0.0263,0.0263,0.0262,0.0249,0.0249,0.0249,0.0249,0.0206,0.0205,0.0203,0,0,0,0,0,0,0,0,0,0,0,0,0,0.0281,0.0292,0.0286,0.0276,0.0275,0.0263,0.0263,0.0262,0.0249,0.0249,0.0249,0.0249,0.0206,0.0205,0.0203,0.0192,0,0,0.0198,0.0197,0,0,0,0,0,0,0,0,0.0282,0.028,0.0278,0.0277,0.0276,0.026,0.0249,0.0238,0.0249,0.0258,0.0249,0.0249,0.0222,0.0219,0.0214,0.019,0.0188,0.0197,0.0196,0.0196,0.0195,0,0,0,0,0,0,0,0.0282,0.0281,0.0276,0.0278,0.0276,0.0265,0.0264,0.0247,0.0239,0.0257,0.0256,0.0255,0.0221,0.0216,0.0213,0.0187,0.0197,0.0196,0.0195,0.0194,0.0178,0.0178,0,0,0,0,0,0,0.0288,0.0282,0.0276,0.0275,0.028,0.0265,0.0263,0.0264,0.024,0.0236,0.0255,0.0255,0.0219,0.0215,0.0211,0.022,0.0196,0.0194,0.0193,0.0177,0.0178,0.0178,0,0,0,0,0,0,0.0289,0.0288,0.0277,0.0279,0.0277,0.0265,0.0266,0.0264,0.0264,0.0239,0.0235,0.0259,0.0218,0.0214,0.0203,0.0218,0.0193,0.0192,0.0176,0.0177,0.0178,0.0223,0,0,0,0,0,0,0.0289,0.0288,0.0297,0.0279,0.0277,0.0274,0.0266,0.0263,0.0263,0.0263,0.024,0.0236,0.0218,0.0206,0.0202,0.0215,0.019,0.0176,0.0177,0.0178,0.0221,0.0226,0.023,0,0,0,0,0,0.0289,0.03,0.0298,0.0297,0.0287,0.0274,0.0272,0.0263,0.0264,0.0264,0.0252,0.0237,0.0211,0.0205,0.02,0.0213,0.0175,0.0176,0.0178,0.0219,0.0225,0.023,0,0,0,0,0,0,0.0307,0.0299,0.0296,0.0304,0.0292,0.0272,0.0277,0.0269,0.026,0.0263,0.024,0.0234,0.0229,0.0216,0.021,0.0212,0.0192,0.0193,0.0226,0.0231,0.0235,0.0242,0.0189,0,0,0,0,0,0.0315,0.0324,0.0307,0.0315,0.0311,0.0296,0.0293,0.0284,0.0272,0.0268,0.0253,0.0241,0.0229,0.0227,0.0209,0.021,0.0184,0.0217,0.0222,0.0225,0.0228,0.0192,0.0193,0.0183,0.0183,0.0183,0,0,0.0326,0.0322,0.0328,0.0319,0.0312,0.0311,0.0294,0.0292,0.0294,0.0265,0.0267,0.0249,0.0231,0.023,0.0228,0.0223,0.0216,0.0227,0.023,0.0231,0.0193,0.0194,0.0195,0.0184,0.0184,0.0184,0,0,0.0345,0.0346,0.0357,0.0349,0.0341,0.033,0.0332,0.0314,0.0311,0.0308,0.0289,0.0281,0.0266,0.0255,0.0249,0.0267,0.0234,0.0267,0.0301,0.0266,0.0266,0.0266,0.0239,0.0236,0.0277,0.0277,0.0277,0,0.0357,0.0369,0.0357,0.0361,0.0362,0.0341,0.0349,0.0341,0.0323,0.0323,0.0316,0.0295,0.0278,0.0278,0.0288,0.0276,0.0252,0.0283,0.0271,0.027,0.0269,0.0241,0.0238,0.0279,0.0279,0.0279,0.0278,0,0.0379,0.039,0.0396,0.0398,0.0394,0.0398,0.0383,0.0382,0.0379,0.0367,0.0363,0.0338,0.0328,0.0325,0.0314,0.0308,0.0292,0.0273,0.0257,0.0273,0.0243,0.0238,0.0283,0.0282,0.0281,0.028,0,0,0.04,0.0412,0.0414,0.0426,0.0416,0.0416,0.0422,0.0419,0.0429,0.0411,0.0418,0.0401,0.0386,0.0378,0.036,0.0338,0.0314,0.0312,0.0309,0.0285,0.0242,0.0226,0.0219,0.0291,0.029,0.029,0.0225,0,0.0421,0.0446,0.0442,0.0466,0.0477,0.0464,0.0474,0.0468,0.0459,0.0458,0.0435,0.0431,0.0407,0.0409,0.0381,0.033,0.0303,0.0334,0.0231,0.0228,0.0211,0.0214,0.0288,0.0222,0.022,0.022,0.0219,0,0.044,0.0457,0.0488,0.051,0.0514,0.0529,0.0542,0.0546,0.0533,0.0528,0.0512,0.0483,0.046,0.0433,0.0352,0.0372,0.0313,0.0268,0.0264,0.023,0.0204,0.02,0.021,0.021,0.0211,0.0212,0.0212,0,0.0461,0.0487,0.0521,0.0526,0.0544,0.0566,0.0579,0.0573,0.0586,0.0572,0.0575,0.0529,0.0518,0.0435,0.0347,0.0347,0.0246,0.0229,0.0157,0.0156,0.0168,0.0168,0.016,0.016,0.016,0.016,0.016,0,0.0479,0.0503,0.0542,0.0559,0.0605,0.0605,0.0646,0.0647,0.0654,0.067,0.0619,0.0616,0.0517,0.0446,0.0355,0.0246,0.0248,0.0161,0.0136,0.019,0.0194,0.0164,0.0166,0.0158,0.0158,0.0159,0.0159,0,0.0483,0.051,0.055,0.0595,0.0617,0.065,0.0701,0.0721,0.0725,0.0743,0.0743,0.0685,0.0596,0.0481,0.0348,0.0266,0.0154,0.011,0.0185,0.0164,0.0085,0.009,0.0026,0.0025,0.0024,0.0023,0.0022,0,0.0484,0.0509,0.058,0.0613,0.064,0.0695,0.0731,0.0759,0.0779,0.0782,0.0789,0.0718,0.0662,0.0466,0.0344,0.0162,0.0132,0.0069,0.007,0.0089,0.007,0.0077,0.0082,0.0021,0.0021,0.002,0.002,0,0.0481,0.0515,0.0552,0.0627,0.0682,0.0739,0.0796,0.0818,0.0843,0.0851,0.0818,0.0719,0.0617,0.0467,0.0325,0.0193,0.0107,0.0058,0.0059,0.006,0.0082,0.0066,0.0073,0.0017,0.0017,0.0018,0.0018,0,0.048,0.0508,0.0568,0.063,0.07,0.076,0.0794,0.0823,0.0848,0.0851,0.0841,0.0732,0.0678,0.0483,0.0353,0.0222,0.0185,0.0132,0.0128,0.013,0.0177,0.0221,0.0176,0,0,0,0,0,0.0471,0.0505,0.0563,0.0637,0.0705,0.075,0.0821,0.0847,0.088,0.0858,0.0851,0.0753,0.0566,0.0491,0.0356,0.0327,0.0157,0.0162,0.0093,-0.0001,0.0003,0.0037,0,0,0,0,0,0,0.0465,0.0518,0.0555,0.0629,0.0677,0.0755,0.0803,0.0829,0.0817,0.0831,0.0736,0.0704,0.0525,0.064,0.0348,0.0311,0.0243,0.0084,0.0081,-0.0003,0.0,0.0003,0.004,0,0,0,0,0]}]]